This is the latest recevied weather packets stored in our database for station/object KF7SOJ. If no packets are shown the sender has not sent any weather packets the latest 1 day(s).
| Time | Temp. | Humidity | Pressure | Rain* | Wind** | Luminosity | Snow |
|---|---|---|---|---|---|---|---|
| 1778041303 | 3.33° C | 43% | 935.4 hPa | 0 mm | - | 0 W/m² | - |
| 1778040698 | 3.33° C | 44% | 935.2 hPa | 0 mm | - | 0 W/m² | - |
| 1778040092 | 2.78° C | 44% | 935.3 hPa | 0 mm | - | 0 W/m² | - |
| 1778039183 | 2.78° C | 43% | 935.5 hPa | 0 mm | - | 0 W/m² | - |
| 1778038880 | 3.89° C | 41% | 935.3 hPa | 0 mm | - | 0 W/m² | - |
| 1778038577 | 3.89° C | 41% | 935.4 hPa | 0 mm | - | 0 W/m² | - |
| 1778038274 | 3.89° C | 41% | 935.2 hPa | 0 mm | - | 0 W/m² | - |
| 1778037668 | 3.89° C | 40% | 935 hPa | 0 mm | - | 0 W/m² | - |
| 1778037062 | 4.44° C | 40% | 934.9 hPa | 0 mm | - | 0 W/m² | - |
| 1778036761 | 3.89° C | 41% | 934.9 hPa | 0 mm | - | 0 W/m² | - |
| 1778036457 | 3.89° C | 42% | 934.8 hPa | 0 mm | - | 0 W/m² | - |
| 1778035850 | 3.89° C | 42% | 934.7 hPa | 0 mm | - | 0 W/m² | - |
| 1778035548 | 4.44° C | 41% | 934.3 hPa | 0 mm | - | 0 W/m² | - |
| 1778034940 | 5° C | 40% | 934.2 hPa | 0 mm | - | 2 W/m² | - |
| 1778034638 | 5.56° C | 39% | 934.3 hPa | 0 mm | - | 3 W/m² | - |
| 1778034335 | 5.56° C | 37% | 934.4 hPa | 0 mm | - | 6 W/m² | - |
| 1778033730 | 6.11° C | 37% | 934.2 hPa | 0 mm | - | 11 W/m² | - |
| 1778033427 | 6.11° C | 36% | 933.9 hPa | 0 mm | - | 13 W/m² | - |
| 1778032519 | 6.67° C | 36% | 933.7 hPa | 0 mm | - | 24 W/m² | - |
| 1778032216 | 6.67° C | 35% | 933.8 hPa | 0 mm | - | 30 W/m² | - |
| 1778031609 | 7.22° C | 35% | 933.8 hPa | 0 mm | - | 38 W/m² | - |
| 1778031307 | 7.78° C | 32% | 933.8 hPa | 0 mm | - | 64 W/m² | - |
| 1778030397 | 7.78° C | 32% | 933.9 hPa | 0 mm | - | 90 W/m² | - |
| 1778029790 | 8.33° C | 32% | 933.7 hPa | 0 mm | - | 55 W/m² | - |
| 1778029490 | 8.33° C | 32% | 933.5 hPa | 0 mm | - | 129 W/m² | - |
* Rain latest hour (hover to see other rain measurements)
** Current wind speed in m/s (hover to see current wind gust speed)